Weather History for KFHU - March, 2014

Change the Weather History Date:

Tuesday, March 18, 2014

  Actual Average Record
Temperature  
Mean Temperature 62 °F -  
Max Temperature 75 °F 69 °F 82 °F (2009)
Min Temperature 48 °F 46 °F 29 °F (1991)
Degree Days  
Heating Degree Days 4    
Growing Degree Days 12 (Base 50)    
Moisture  
Dew Point 8 °F    
Average Humidity 12    
Maximum Humidity 21    
Minimum Humidity 7    
Precipitation  
Precipitation 0.00 in - - ()
Sea Level Pressure  
Sea Level Pressure 29.76 in    
Wind  
Wind Speed 15 mph (WSW)    
Max Wind Speed 23 mph    
Max Gust Speed 29 mph    
Visibility 10 miles    
Events      
Averages and records for this station are not official NWS values.
T = Trace of Precipitation, MM = Missing Value Source: NWS Daily Summary

Daily Weather History Graph

Daily Weather History Graph

Search for Another Location

Airport or City:

Trip Planner

Search our weather history database for the weather conditions in past years. The results will help you decide how hot, cold, wet, or windy it might be!

Date:

Astronomy

Mar. 18, 2014 Rise Set
Actual Time 6:27 AM MST 6:31 PM MST
Civil Twilight 6:03 AM MST 6:55 PM MST
Nautical Twilight 5:35 AM MST 7:24 PM MST
Astronomical Twilight 5:06 AM MST 7:52 PM MST
Moon 8:41 PM MST (3/18) 7:27 AM MST (3/18)
Length of Visible Light 12h 52m
Length of Day
12h 04m
Waning Gibbous, 96% of the Moon is Illuminated
Mar 18
Waning Gibbous
Mar 23
Last Quarter
Mar 30
New
Apr 7
First Quarter
Apr 15
Full

Hourly Weather History & Observations

Time (MST) Temp. Dew Point Humidity Pressure Visibility Wind Dir Wind Speed Gust Speed Precip Events Conditions
12:55 AM 59.0 °F 6.8 °F 13% 29.66 in 10.0 mi West 17.3 mph 27.6 mph N/A   Mostly Cloudy
1:55 AM 60.8 °F 6.8 °F 12% 29.65 in 10.0 mi WSW 20.7 mph 26.5 mph N/A   Mostly Cloudy
2:55 AM 59.0 °F 5.0 °F 12% 29.64 in 10.0 mi WSW 18.4 mph - N/A   Mostly Cloudy
3:55 AM 59.0 °F 3.2 °F 11% 29.64 in 10.0 mi WSW 16.1 mph - N/A   Mostly Cloudy
4:55 AM 59.0 °F 5.0 °F 12% 29.65 in 10.0 mi WSW 15.0 mph - N/A   Mostly Cloudy
5:55 AM 57.2 °F 6.8 °F 13% 29.68 in 10.0 mi WSW 12.7 mph - N/A   Mostly Cloudy
6:55 AM 48.2 °F 8.6 °F 20% 29.74 in 10.0 mi Calm Calm - N/A   Mostly Cloudy
7:55 AM 55.4 °F 8.6 °F 15% 29.76 in 10.0 mi East 3.5 mph - N/A   Overcast
8:55 AM 60.8 °F 8.6 °F 13% 29.77 in 10.0 mi Calm Calm - N/A   Overcast
9:55 AM 64.4 °F 10.4 °F 12% 29.77 in 10.0 mi West 10.4 mph - N/A   Overcast
10:55 AM 69.8 °F 8.6 °F 9% 29.77 in 10.0 mi West 13.8 mph 20.7 mph N/A   Overcast
11:55 AM 71.6 °F 6.8 °F 8% 29.77 in 10.0 mi West 16.1 mph 23.0 mph N/A   Mostly Cloudy
12:55 PM 71.6 °F 6.8 °F 8% 29.75 in 10.0 mi West 16.1 mph 23.0 mph N/A   Mostly Cloudy
1:55 PM 75.2 °F 6.8 °F 7% 29.88 in 10.0 mi West 23.0 mph 28.8 mph N/A   Mostly Cloudy
2:55 PM 73.4 °F 8.6 °F 8% 29.72 in 10.0 mi West 17.3 mph 28.8 mph N/A   Overcast
3:55 PM 73.4 °F 6.8 °F 8% 29.73 in 10.0 mi West 19.6 mph 25.3 mph N/A   Overcast
4:55 PM 71.6 °F 8.6 °F 9% 29.74 in 10.0 mi West 23.0 mph 26.5 mph N/A   Overcast
5:55 PM 69.8 °F 8.6 °F 9% 29.76 in 10.0 mi SW 17.3 mph - N/A   Overcast
6:55 PM 64.4 °F 10.4 °F 12% 29.81 in 10.0 mi WSW 10.4 mph - N/A   Mostly Cloudy
7:55 PM 57.2 °F 10.4 °F 16% 29.85 in 10.0 mi WSW 9.2 mph - N/A   Mostly Cloudy
8:55 PM 57.2 °F 10.4 °F 16% 29.86 in 10.0 mi SW 11.5 mph - N/A   Scattered Clouds
9:55 PM 55.4 °F 10.4 °F 17% 29.86 in 10.0 mi WSW 10.4 mph - N/A   Mostly Cloudy
10:55 PM 53.6 °F 10.4 °F 18% 29.88 in 10.0 mi West 11.5 mph - N/A   Mostly Cloudy
11:55 PM 53.6 °F 14.0 °F 21% 29.88 in 10.0 mi West 11.5 mph - N/A   Mostly Cloudy